Home > Weather > Freistadt > Past weeks

Flag for Austria Weather for the Past 2 Weeks in Freistadt, Upper Austria, Austria

Now
35 °F

Chilly.


Feels Like: 30 °F
Forecast: 30 / 36 °F
Wind: 6 mph from Northwest

Location: Rohrbach

Current Time: Feb 10, 2016 at 3:07:08 PM

Latest Report: Feb 10, 2016 at 2:00 PM


Visibility: N/A

Pressure: 29.47 "Hg (27.47 "Hg at 565m altitude)

Humidity: 84%

Dew point: 30 °F

Location of FreistadtLocation

Historic Weather in Freistadt — Graph

°F

Freistadt Temperature Yesterday

Maximum temperature yesterday: 46 °F (at 6:00 PM)
Minimum temperature yesterday: 39 °F (at 8:00 AM)
Average temperature yesterday: 44 °F

High & Low Weather Summary for the Past Weeks

 TemperatureHumidityPressure
High50 °F (Feb 7, 3:00 PM)100% (Jan 29, 4:00 AM)30.46 "Hg (Jan 29, 4:00 AM)
Low28 °F (Feb 6, 8:00 AM)58% (Feb 8, 2:00 PM)29.23 "Hg (Feb 9, 10:00 PM)
Average39 °F88%30.10 "Hg
* Reported Jan 26 1:00 PM — Feb 10 1:00 PM, Freistadt, Weather by CustomWeather, © 2016

Note: Actual official high and low records may vary slightly from our data, if they occured in-between our weather recording intervals... More about our weather records

Advertising

Freistadt Weather History for the Previous 24 Hours

 ConditionsComfort  
Time TempWeatherWind HumidityBarometerVisibility
1:00 PM
Wed, Feb 10
34 °FChilly.5 mph87%29.47 "HgN/A
12:00 PM34 °FSprinkles. Cloudy.3 mph95%29.47 "HgN/A
11:00 AM33 °FFog.2 mph97%29.44 "HgN/A
10:00 AM33 °FChilly.5 mph95%29.44 "HgN/A
9:00 AM32 °FFog.3 mph97%29.44 "HgN/A
8:00 AM32 °FFog.3 mph96%29.41 "HgN/A
7:00 AM33 °FChilly.5 mph96%29.41 "HgN/A
6:00 AM33 °FSprinkles. Overcast.5 mph97%29.38 "HgN/A
5:00 AM35 °FChilly.5 mph95%29.38 "HgN/A
4:00 AM35 °FChilly.3 mph93%29.38 "HgN/A
3:00 AM35 °FChilly.3 mph92%29.38 "HgN/A
12:00 AM42 °FQuite cool.8 mph87%29.35 "HgN/A
10:00 PM
Tue, Feb 9
44 °FQuite cool.1 mph76%29.23 "HgN/A
9:00 PM46 °FCool.1 mph69%29.26 "HgN/A
8:00 PM46 °FCool.1 mph68%29.29 "HgN/A
7:00 PM46 °FCool.No wind71%29.29 "HgN/A
6:00 PM46 °FCool.1 mph70%29.32 "HgN/A
Weather by CustomWeather, © 2016

See weather overviewHow to use our weather pages